Location: Unspecified
(0.0000°N, 0.0000°E)
Time: 04:05:38
(UTC+00:00)

CZ-6A DEB - Pass Details

Date: 14 October 2025
Orbit: 818 x 870 km, 98.8° (Epoch: 17 November)

Event Time Altitude Azimuth Distance (km) Brightness Sun altitude
Rises 18:59:39 0° 206° (SSW) 3,369 ? -18.2°
Reaches altitude 10° 19:03:42 10° 236° (SW) 2,444 ? -19.2°
Maximum altitude 19:05:36 12° 257° (WSW) 2,319 ? -19.7°
Drops below altitude 10° 19:07:29 10° 278° (W) 2,452 ? -20.2°
Sets 19:11:36 0° 308° (NW) 3,397 ? -21.2°
